Weather History for Marion, IN

Change the Weather History Date:

Sunday, June 16, 2013

  Actual Average (KMIE) Record (KMIE)
Temperature  
Mean Temperature 72 °F 72 °F  
Max Temperature 79 °F 82 °F 95 °F (1967)
Min Temperature 66 °F 62 °F 40 °F (1969)
Degree Days  
Heating Degree Days 0 1  
Month to date heating degree days 21  
Since 1 June heating degree days 21  
Since 1 July heating degree days 5780  
Cooling Degree Days 8 7  
Month to date cooling degree days 92  
Year to date cooling degree days 175  
Since 1 June cooling degree days 92  
Growing Degree Days 22 (Base 50)    
Moisture  
Dew Point 63 °F    
Average Humidity 75    
Maximum Humidity 91    
Minimum Humidity 60    
Precipitation  
Precipitation 0.07 in 0.15 in 1.07 in (1982)
Month to date precipitation 2.53  
Year to date precipitation 18.10  
Sea Level Pressure  
Sea Level Pressure 29.96 in    
Wind  
Wind Speed 9 mph (WSW)    
Max Wind Speed 18 mph    
Max Gust Speed 23 mph    
Visibility 8 miles    
Events Rain    
T = Trace of Precipitation, MM = Missing Value Source: NWS Daily Summary

Daily Weather History Graph

Daily Weather History Graph

Search for Another Location

Airport:

Trip Planner

Search our weather history database for the weather conditions in past years. The results will help you decide how hot, cold, wet, or windy it might be!

Date:

Astronomy

Jun. 16, 2013 Rise Set
Actual Time 6:11 AM EDT 9:15 PM EDT
Civil Twilight 5:38 AM EDT 9:48 PM EDT
Nautical Twilight 4:56 AM EDT 10:30 PM EDT
Astronomical Twilight 4:06 AM EDT 11:20 PM EDT
Moon 1:48 PM EDT (6/16) 1:18 AM EDT (6/16)
Length of Visible Light 16h 10m
Length of Day
15h 03m
Waxing Crescent, 49% of the Moon is Illuminated
Jun 16
Waxing Crescent
Jun 16
First Quarter
Jun 23
Full
Jun 30
Last Quarter
Jul 8
New

Hourly Weather History & Observations

Time (EDT) Temp. Dew Point Humidity Pressure Visibility Wind Dir Wind Speed Gust Speed Precip Events Conditions
12:15 AM 66.7 °F 60.8 °F 81% 29.96 in 10.0 mi South 4.6 mph - N/A   Clear
12:35 AM 66.6 °F 60.8 °F 82% 29.96 in 10.0 mi South 4.6 mph - N/A   Clear
12:55 AM 66.6 °F 60.8 °F 82% 29.96 in 10.0 mi SSW 4.6 mph - N/A   Scattered Clouds
1:15 AM 66.4 °F 61.3 °F 84% 29.96 in 10.0 mi SW 6.9 mph - N/A   Overcast
1:35 AM 66.9 °F 61.3 °F 82% 29.96 in 10.0 mi SSW 5.8 mph - N/A   Overcast
1:55 AM 67.1 °F 61.3 °F 82% 29.95 in 10.0 mi SW 5.8 mph - N/A   Overcast
2:15 AM 67.6 °F 61.7 °F 81% 29.95 in 7.0 mi SW 6.9 mph - N/A   Overcast
2:35 AM 69.1 °F 61.7 °F 77% 29.97 in 10.0 mi West 18.4 mph 23.0 mph N/A   Overcast
2:55 AM 70.0 °F 63.0 °F 78% 29.98 in 5.0 mi West 13.8 mph 21.9 mph 0.04 in Rain Rain
3:15 AM 68.0 °F 64.2 °F 88% 29.96 in 7.0 mi WSW 9.2 mph - 0.02 in Rain Light Rain
3:35 AM 67.5 °F 64.4 °F 90% 29.96 in 5.0 mi SW 9.2 mph - 0.02 in   Overcast
3:55 AM 67.3 °F 64.6 °F 91% 29.95 in 7.0 mi SW 9.2 mph - 0.02 in   Mostly Cloudy
4:15 AM 67.3 °F 64.2 °F 90% 29.94 in 7.0 mi WSW 8.1 mph - N/A   Overcast
4:35 AM 67.5 °F 63.1 °F 86% 29.94 in 10.0 mi WSW 10.4 mph - N/A   Overcast
4:55 AM 67.3 °F 62.4 °F 84% 29.93 in 7.0 mi WSW 9.2 mph - N/A Rain Light Rain
5:15 AM 67.1 °F 61.3 °F 82% 29.93 in 7.0 mi SW 8.1 mph - N/A Rain Light Rain
5:35 AM 66.6 °F 61.3 °F 83% 29.93 in 10.0 mi SW 5.8 mph - N/A Rain Light Rain
5:55 AM 66.7 °F 61.0 °F 82% 29.93 in 7.0 mi WSW 5.8 mph - N/A   Overcast
6:15 AM 67.1 °F 60.4 °F 79% 29.93 in 7.0 mi West 5.8 mph - N/A   Overcast
6:35 AM 66.9 °F 60.4 °F 80% 29.94 in 7.0 mi WSW 5.8 mph - N/A Rain Light Rain
6:55 AM 66.9 °F 60.4 °F 80% 29.96 in 7.0 mi WSW 10.4 mph - 0.01 in Rain Light Rain
7:15 AM 67.1 °F 60.3 °F 79% 29.96 in 7.0 mi WSW 8.1 mph - N/A   Overcast
7:35 AM 67.1 °F 60.6 °F 80% 29.96 in 7.0 mi WSW 8.1 mph - N/A Rain Light Rain
7:55 AM 67.1 °F 60.8 °F 80% 29.96 in 10.0 mi WSW 9.2 mph - N/A   Overcast
8:15 AM 67.3 °F 60.8 °F 80% 29.97 in 5.0 mi WSW 12.7 mph 16.1 mph N/A   Haze
8:35 AM 67.8 °F 61.0 °F 79% 29.98 in 5.0 mi WSW 10.4 mph - N/A   Haze
8:55 AM 68.5 °F 61.3 °F 78% 29.97 in 7.0 mi West 11.5 mph - N/A   Mostly Cloudy
9:15 AM 68.9 °F 61.0 °F 76% 29.98 in 7.0 mi West 10.4 mph - N/A   Scattered Clouds
9:35 AM 69.6 °F 61.2 °F 74% 29.97 in 4.0 mi West 11.5 mph - N/A   Haze
9:55 AM 70.9 °F 61.7 °F 73% 29.97 in 7.0 mi WNW 10.4 mph 18.4 mph N/A   Clear
10:15 AM 71.1 °F 61.3 °F 71% 29.99 in 7.0 mi West 13.8 mph 20.7 mph N/A   Mostly Cloudy
10:35 AM 70.9 °F 61.7 °F 73% 29.98 in 7.0 mi WSW 15.0 mph 21.9 mph N/A   Mostly Cloudy
10:55 AM 71.6 °F 62.4 °F 73% 29.97 in 7.0 mi WSW 11.5 mph 19.6 mph N/A   Mostly Cloudy
11:15 AM 72.1 °F 63.3 °F 74% 29.97 in 7.0 mi WSW 15.0 mph - N/A   Mostly Cloudy
11:35 AM 73.0 °F 63.3 °F 71% 29.97 in 7.0 mi WSW 16.1 mph 19.6 mph N/A   Mostly Cloudy
11:55 AM 73.0 °F 63.3 °F 71% 29.98 in 10.0 mi West 17.3 mph - N/A   Overcast
12:15 PM 73.6 °F 63.3 °F 70% 29.98 in 10.0 mi West 16.1 mph 23.0 mph N/A   Overcast
12:35 PM 74.7 °F 63.9 °F 69% 29.98 in 10.0 mi West 16.1 mph - N/A   Overcast
12:55 PM 75.4 °F 64.2 °F 68% 29.98 in 10.0 mi WSW 15.0 mph 19.6 mph N/A   Overcast
1:15 PM 75.6 °F 63.9 °F 67% 29.97 in 10.0 mi SW 15.0 mph - N/A   Overcast
1:35 PM 75.9 °F 64.6 °F 68% 29.97 in 10.0 mi West 16.1 mph - N/A   Overcast
1:55 PM 76.3 °F 64.4 °F 67% 29.97 in 7.0 mi West 15.0 mph 19.6 mph N/A   Overcast
2:15 PM 76.8 °F 64.2 °F 65% 29.97 in 7.0 mi West 13.8 mph 19.6 mph N/A   Overcast
2:35 PM 77.5 °F 64.2 °F 63% 29.96 in 7.0 mi WSW 13.8 mph 19.6 mph N/A   Mostly Cloudy
2:55 PM 77.2 °F 63.9 °F 63% 29.96 in 7.0 mi WSW 13.8 mph - N/A   Mostly Cloudy
3:15 PM 76.8 °F 64.0 °F 65% 29.96 in 10.0 mi WSW 17.3 mph 21.9 mph N/A   Mostly Cloudy
3:35 PM 77.4 °F 64.4 °F 64% 29.96 in 7.0 mi WSW 18.4 mph 21.9 mph N/A   Mostly Cloudy
3:55 PM 77.9 °F 64.2 °F 63% 29.96 in 7.0 mi West 12.7 mph - N/A   Overcast
4:15 PM 77.9 °F 64.2 °F 63% 29.96 in 10.0 mi WSW 16.1 mph - N/A   Mostly Cloudy
4:35 PM 78.6 °F 64.0 °F 61% 29.96 in 10.0 mi WSW 13.8 mph 19.6 mph N/A   Scattered Clouds
4:55 PM 78.4 °F 63.9 °F 61% 29.95 in 10.0 mi WSW 13.8 mph 18.4 mph N/A   Mostly Cloudy
5:15 PM 79.2 °F 64.0 °F 60% 29.95 in 10.0 mi WSW 10.4 mph - N/A   Scattered Clouds
5:35 PM 79.0 °F 64.8 °F 62% 29.94 in 7.0 mi West 11.5 mph - N/A   Mostly Cloudy
5:55 PM 78.3 °F 64.6 °F 63% 29.94 in 10.0 mi WSW 13.8 mph - N/A   Overcast
6:15 PM 78.6 °F 65.1 °F 63% 29.94 in 10.0 mi West 12.7 mph - N/A   Mostly Cloudy
6:35 PM 78.3 °F 64.9 °F 63% 29.94 in 7.0 mi West 15.0 mph - N/A   Scattered Clouds
6:55 PM 78.1 °F 64.6 °F 63% 29.94 in 10.0 mi West 12.7 mph - N/A   Scattered Clouds
7:15 PM 77.9 °F 63.9 °F 62% 29.95 in 10.0 mi West 13.8 mph - N/A   Scattered Clouds
7:35 PM 77.9 °F 64.0 °F 62% 29.95 in 7.0 mi WNW 12.7 mph - N/A   Clear
7:55 PM 76.6 °F 64.4 °F 66% 29.95 in 7.0 mi West 9.2 mph - N/A   Scattered Clouds
8:15 PM 76.6 °F 64.9 °F 67% 29.95 in 7.0 mi West 6.9 mph - N/A   Mostly Cloudy
8:35 PM 76.3 °F 64.6 °F 67% 29.95 in 7.0 mi West 6.9 mph - N/A   Scattered Clouds
8:55 PM 74.7 °F 64.6 °F 71% 29.95 in 7.0 mi West 4.6 mph - N/A   Clear
9:15 PM 73.0 °F 65.5 °F 77% 29.94 in 10.0 mi West 4.6 mph - N/A   Clear
9:35 PM 71.8 °F 65.5 °F 80% 29.94 in 5.0 mi WSW 4.6 mph - N/A   Haze
9:55 PM 70.7 °F 65.3 °F 83% 29.94 in 7.0 mi SW 5.8 mph - N/A   Clear
10:15 PM 70.0 °F 65.3 °F 85% 29.95 in 10.0 mi SW 3.5 mph - N/A   Clear
10:35 PM 70.0 °F 65.3 °F 85% 29.96 in 10.0 mi SW 5.8 mph - N/A   Clear
10:55 PM 69.6 °F 65.3 °F 86% 29.96 in 10.0 mi SW 4.6 mph - N/A   Scattered Clouds
11:15 PM 69.8 °F 65.1 °F 85% 29.97 in 10.0 mi SW 3.5 mph - N/A   Mostly Cloudy
11:35 PM 68.7 °F 64.6 °F 87% 29.96 in 10.0 mi SSW 5.8 mph - N/A   Scattered Clouds
11:55 PM 68.5 °F 64.8 °F 88% 29.96 in 5.0 mi SW 6.9 mph - N/A   Scattered Clouds